Boise, ID

7:39 PM MST on February 24, 2017 (GMT -0700)
Boise Air Term

Weather History for KBOI - August, 2013

Change the Weather History Date:

Wednesday, August 28, 2013

  Actual Average Record
Temperature  
Mean Temperature 85 °F 72 °F  
Max Temperature 95 °F 86 °F 102 °F (2009)
Min Temperature 74 °F 57 °F 39 °F (1960)
Degree Days  
Heating Degree Days 0 1  
Month to date heating degree days 0 3  
Since 1 June heating degree days 35 75  
Since 1 July heating degree days 0 11  
Cooling Degree Days 20 7  
Month to date cooling degree days 376 286  
Year to date cooling degree days 1130 811  
Since 1 June cooling degree days 1083 767  
Growing Degree Days 34 (Base 50)    
Moisture  
Dew Point 49 °F    
Average Humidity 33    
Maximum Humidity 49    
Minimum Humidity 17    
Precipitation  
Precipitation T in 0.01 in 0.32 in (1922)
Month to date precipitation 0.45 0.21  
Year to date precipitation 4.91 7.47  
Snow  
Snow 0.00 in 0.00 in 0.00 in (2006)
Month to date snowfall 0.0 0.0  
Since 1 July snowfall 0.0 0.0  
Snow Depth 0.00 in    
Sea Level Pressure  
Sea Level Pressure 29.79 in    
Wind  
Wind Speed 8 mph (SE)    
Max Wind Speed 18 mph    
Max Gust Speed 23 mph    
Visibility 10 miles    
Events      
T = Trace of Precipitation, MM = Missing Value Source: NWS Daily Summary

Daily Weather History Graph

Daily Weather History Graph

Search for Another Location

Airport or City:

Trip Planner

Search our weather history database for the weather conditions in past years. The results will help you decide how hot, cold, wet, or windy it might be!

Date:

Astronomy

Aug. 28, 2013 Rise Set
Actual Time 7:04 AM MDT 8:26 PM MDT
Civil Twilight 6:34 AM MDT 8:56 PM MDT
Nautical Twilight 5:58 AM MDT 9:32 PM MDT
Astronomical Twilight 5:20 AM MDT 10:09 PM MDT
Moon 12:10 AM MDT (8/28) 3:13 PM MDT (8/28)
Length of Visible Light 14h 21m
Length of Day
13h 22m
Waning Gibbous, 47% of the Moon is Illuminated
Aug 28
Waning Gibbous
Sep 5
New
Sep 12
First Quarter
Sep 19
Full
Sep 26
Last Quarter

Hourly Weather History & Observations

Time (MDT) Temp. Heat Index Dew Point Humidity Pressure Visibility Wind Dir Wind Speed Gust Speed Precip Events Conditions
12:53 AM 82.0 °F - 48.9 °F 31% 29.70 in 10.0 mi ESE 11.5 mph - N/A   Clear
1:53 AM 82.0 °F - 48.9 °F 31% 29.67 in 10.0 mi ESE 9.2 mph - N/A   Clear
2:53 AM 80.1 °F - 50.0 °F 35% 29.69 in 10.0 mi SE 8.1 mph - N/A   Clear
3:53 AM 82.9 °F - 50.0 °F 32% 29.73 in 10.0 mi South 12.7 mph 23.0 mph N/A   Partly Cloudy
4:53 AM 78.1 °F - 51.1 °F 39% 29.75 in 10.0 mi East 9.2 mph 19.6 mph 0.00 in   Overcast
5:53 AM 78.1 °F - 51.1 °F 39% 29.76 in 10.0 mi ESE 8.1 mph - N/A   Partly Cloudy
6:53 AM 75.9 °F - 52.0 °F 43% 29.79 in 10.0 mi ESE 13.8 mph - N/A   Overcast
7:53 AM 73.9 °F - 54.0 °F 50% 29.81 in 10.0 mi SW 6.9 mph - N/A   Partly Cloudy
8:53 AM 77.0 °F - 54.0 °F 45% 29.84 in 10.0 mi SE 6.9 mph - 0.00 in   Partly Cloudy
9:53 AM 81.0 °F 80.5 °F 54.0 °F 39% 29.85 in 10.0 mi SE 10.4 mph - N/A   Clear
10:53 AM 82.9 °F 82.0 °F 55.0 °F 38% 29.86 in 10.0 mi ESE 9.2 mph - N/A   Partly Cloudy
11:53 AM 88.0 °F - 52.0 °F 29% 29.86 in 10.0 mi ESE 11.5 mph 19.6 mph N/A   Clear
12:53 PM 90.0 °F - 46.0 °F 22% 29.84 in 10.0 mi SSE 8.1 mph - N/A   Clear
1:53 PM 90.0 °F - 45.0 °F 21% 29.83 in 10.0 mi Variable 4.6 mph - N/A   Scattered Clouds
2:53 PM 90.0 °F - 45.0 °F 21% 29.83 in 10.0 mi WSW 8.1 mph - N/A   Scattered Clouds
3:53 PM 91.9 °F - 44.1 °F 19% 29.80 in 10.0 mi Variable 3.5 mph - N/A   Partly Cloudy
4:53 PM 93.9 °F - 45.0 °F 18% 29.79 in 10.0 mi NE 4.6 mph - N/A   Partly Cloudy
5:53 PM 91.9 °F - 43.0 °F 18% 29.78 in 10.0 mi East 5.8 mph - N/A   Clear
6:53 PM 93.0 °F - 43.0 °F 18% 29.78 in 10.0 mi ESE 5.8 mph - N/A   Clear
7:53 PM 91.0 °F - 44.1 °F 20% 29.77 in 10.0 mi SE 4.6 mph - N/A   Clear
8:53 PM 87.1 °F - 45.0 °F 23% 29.78 in 10.0 mi Calm Calm - N/A   Clear
9:53 PM 81.0 °F - 46.9 °F 30% 29.80 in 10.0 mi SE 10.4 mph - N/A   Clear
10:53 PM 82.9 °F - 48.0 °F 29% 29.81 in 10.0 mi SE 6.9 mph - N/A   Partly Cloudy
11:53 PM 82.0 °F - 48.9 °F 31% 29.81 in 10.0 mi East 6.9 mph - 0.00 in   Partly Cloudy